TimePST,TemperatureF,Dew PointF,Humidity,Sea Level PressureIn,VisibilityMPH,Wind Direction,Wind SpeedMPH,Gust SpeedMPH,PrecipitationIn,Events,Conditions,WindDirDegrees,DateUTC
12:53 AM,19.9,16.0,85,30.25,10.0,South,10.4,-,N/A,,Overcast,170,2013-02-27 08:53:00
2:53 AM,19.9,15.1,81,30.26,10.0,South,8.1,-,N/A,,Partly Cloudy,180,2013-02-27 10:53:00
3:53 AM,19.9,15.1,81,30.24,10.0,South,8.1,-,N/A,,Overcast,180,2013-02-27 11:53:00
4:53 AM,19.9,15.1,81,30.24,10.0,South,9.2,-,N/A,,Overcast,180,2013-02-27 12:53:00
5:53 AM,19.9,15.1,81,30.24,10.0,South,5.8,-,N/A,,Overcast,180,2013-02-27 13:53:00
7:53 AM,19.9,16.0,85,30.27,4.0,Variable,3.5,-,0.00,Snow,Light Snow,0,2013-02-27 15:53:00
8:13 AM,21.2,17.6,86,30.10,1.8,Calm,Calm,-,0.00,Snow,Light Snow,0,2013-02-27 16:13:00
8:18 AM,21.2,17.6,86,30.10,3.0,Calm,Calm,-,0.00,Snow,Light Snow,0,2013-02-27 16:18:00
8:30 AM,21.2,17.6,86,30.10,2.5,SSW,5.8,-,0.00,Snow,Light Snow,210,2013-02-27 16:30:00
8:37 AM,24.8,17.6,74,30.10,4.0,Variable,4.6,-,0.00,Snow,Light Snow,0,2013-02-27 16:37:00
8:53 AM,23.0,18.0,81,30.27,2.5,Variable,4.6,-,0.00,Snow,Light Snow,0,2013-02-27 16:53:00
8:56 AM,21.2,17.6,86,30.10,1.8,Variable,5.8,-,0.00,Snow,Light Snow,0,2013-02-27 16:56:00
9:05 AM,21.2,17.6,86,30.11,1.2,Variable,4.6,-,0.00,Snow,Light Snow,0,2013-02-27 17:05:00
9:13 AM,23.0,19.4,86,30.11,2.0,Variable,5.8,-,0.00,Snow,Light Snow,0,2013-02-27 17:13:00
9:24 AM,21.2,17.6,86,30.11,1.2,Variable,5.8,-,0.00,Snow,Light Snow,0,2013-02-27 17:24:00
9:33 AM,23.0,17.6,80,30.11,2.0,Variable,4.6,-,0.00,Snow,Light Snow,0,2013-02-27 17:33:00
9:38 AM,23.0,17.6,80,30.11,4.0,Variable,3.5,-,0.00,Snow,Light Snow,0,2013-02-27 17:38:00
9:53 AM,21.9,18.0,85,30.28,2.0,Variable,3.5,-,0.00,Snow,Light Snow,0,2013-02-27 17:53:00
10:07 AM,23.0,19.4,86,30.12,3.0,Variable,5.8,-,0.01,Snow,Light Snow,0,2013-02-27 18:07:00
10:36 AM,23.0,19.4,86,30.12,0.8,SW,6.9,-,0.01,Snow,Light Snow,230,2013-02-27 18:36:00
10:50 AM,23.0,19.4,86,30.12,0.2,Variable,6.9,-,0.01,Fog-Snow,Snow,0,2013-02-27 18:50:00
10:53 AM,24.1,19.9,84,30.28,0.5,Variable,3.5,-,0.01,Fog-Snow,Snow,0,2013-02-27 18:53:00
11:16 AM,24.8,19.4,80,30.12,1.5,Variable,4.6,-,0.01,Snow,Light Snow,0,2013-02-27 19:16:00
11:25 AM,24.8,19.4,80,30.13,2.0,Variable,3.5,-,0.01,Snow,Light Snow,0,2013-02-27 19:25:00
11:41 AM,24.8,19.4,80,30.13,5.0,WSW,11.5,20.7,0.01,Snow,Light Snow,250,2013-02-27 19:41:00
11:53 AM,24.1,19.0,81,30.29,3.0,Variable,5.8,19.6,0.01,Snow,Light Snow,0,2013-02-27 19:53:00
12:05 PM,23.0,19.4,86,30.13,2.5,Variable,6.9,18.4,0.00,Snow,Light Snow,0,2013-02-27 20:05:00
12:08 PM,23.0,19.4,86,30.13,1.2,Variable,3.5,18.4,0.00,Snow,Light Snow,0,2013-02-27 20:08:00
12:18 PM,24.8,21.2,86,30.13,0.8,Calm,Calm,-,0.00,Snow,Light Snow,0,2013-02-27 20:18:00
12:27 PM,24.8,19.4,80,30.13,-9999.0,Variable,5.8,-,0.01,Snow,Light Snow,0,2013-02-27 20:27:00
12:42 PM,24.8,19.4,80,30.12,2.5,Variable,4.6,-,0.01,Snow,Light Snow,0,2013-02-27 20:42:00
12:50 PM,24.8,19.4,80,30.12,3.0,Variable,4.6,-,0.01,Snow,Light Snow,0,2013-02-27 20:50:00
12:53 PM,24.1,19.9,84,30.28,2.5,Variable,6.9,-,0.01,Snow,Light Snow,0,2013-02-27 20:53:00
1:04 PM,24.8,19.4,80,30.12,4.0,Variable,4.6,-,0.00,Snow,Light Snow,0,2013-02-27 21:04:00
1:53 PM,25.0,21.0,85,30.27,10.0,Variable,6.9,-,0.00,,Overcast,0,2013-02-27 21:53:00
2:41 PM,26.6,21.2,80,30.13,10.0,SW,9.2,-,N/A,,Mostly Cloudy,230,2013-02-27 22:41:00
2:53 PM,26.1,21.0,81,30.29,10.0,WSW,9.2,-,N/A,,Overcast,240,2013-02-27 22:53:00
3:39 PM,24.8,19.4,80,30.15,10.0,SW,6.9,-,N/A,,Overcast,230,2013-02-27 23:39:00
3:53 PM,24.1,21.0,88,30.30,10.0,SW,9.2,-,N/A,,Overcast,230,2013-02-27 23:53:00
4:25 PM,24.8,21.2,86,30.13,10.0,SW,5.8,-,N/A,,Overcast,220,2013-02-28 00:25:00
4:53 PM,24.1,19.9,84,30.30,10.0,SW,9.2,-,N/A,,Overcast,230,2013-02-28 00:53:00
5:05 PM,24.8,19.4,80,30.14,10.0,WSW,6.9,-,N/A,,Overcast,240,2013-02-28 01:05:00
5:53 PM,24.1,21.0,88,30.31,10.0,Variable,4.6,-,N/A,,Mostly Cloudy,0,2013-02-28 01:53:00
6:06 PM,24.8,19.4,80,30.14,10.0,WSW,8.1,-,N/A,,Mostly Cloudy,240,2013-02-28 02:06:00
6:53 PM,24.1,21.0,88,30.31,10.0,Variable,6.9,19.6,N/A,,Overcast,0,2013-02-28 02:53:00
7:14 PM,23.0,21.2,93,30.15,10.0,WSW,8.1,-,N/A,,Overcast,240,2013-02-28 03:14:00
7:53 PM,24.1,21.0,88,30.30,10.0,Variable,6.9,-,N/A,,Mostly Cloudy,0,2013-02-28 03:53:00
8:12 PM,24.8,21.2,86,30.14,10.0,Variable,6.9,-,N/A,,Mostly Cloudy,0,2013-02-28 04:12:00
8:53 PM,23.0,21.0,92,30.29,10.0,WSW,6.9,-,N/A,,Mostly Cloudy,240,2013-02-28 04:53:00
9:16 PM,23.0,21.2,93,30.14,10.0,SSW,5.8,-,N/A,,Mostly Cloudy,210,2013-02-28 05:16:00
9:53 PM,24.1,21.0,88,30.28,10.0,Variable,5.8,-,N/A,,Scattered Clouds,0,2013-02-28 05:53:00
10:53 PM,24.1,21.9,91,30.28,10.0,Variable,5.8,-,N/A,,Overcast,0,2013-02-28 06:53:00
11:06 PM,24.8,21.2,86,30.14,10.0,Variable,3.5,-,N/A,,Overcast,0,2013-02-28 07:06:00
11:18 PM,24.8,21.2,86,30.14,10.0,WSW,5.8,-,N/A,,Overcast,240,2013-02-28 07:18:00
11:30 PM,24.8,21.2,86,30.13,2.5,SSW,8.1,-,0.00,Snow,Light Snow,200,2013-02-28 07:30:00
11:34 PM,24.8,21.2,86,30.13,1.2,SW,8.1,-,0.00,Snow,Light Snow,230,2013-02-28 07:34:00
11:43 PM,24.8,23.0,93,30.13,0.8,SW,4.6,-,0.00,Snow,Light Snow,220,2013-02-28 07:43:00
11:47 PM,24.8,23.0,93,30.13,1.2,Variable,3.5,-,0.00,Snow,Light Snow,0,2013-02-28 07:47:00
11:53 PM,24.1,23.0,96,30.27,1.5,Variable,3.5,-,0.00,Snow,Light Snow,0,2013-02-28 07:53:00
11:59 PM,24.8,23.0,93,30.12,2.0,SSW,4.6,-,0.00,Snow,Light Snow,210,2013-02-28 07:59:00